Location: Tauranga
(37.6860°S, 176.1670°E)
Time: 13:44:56
(UTC+12:00)

ISS - Visible Passes

Search period start: 01 July 2022 00:00
Search period end: 11 July 2022 00:00
Orbit: 414 x 420 km, 51.6° (Epoch: 30 June)

Date Brightness Start Highest point End Pass type
(mag) Time Alt. Az. Time Alt. Az. Time Alt. Az.
02 Jul -1.3 18:11:33 10° S 18:12:22 11° SSE 18:12:40 11° SSE visible
03 Jul -1.3 18:58:44 10° SSW 18:59:35 15° SSW 18:59:35 15° SSW visible
04 Jul -2.0 18:10:50 10° SSW 18:13:12 17° SSE 18:13:41 17° SE visible
05 Jul -2.6 18:58:41 10° SW 19:00:53 35° SSW 19:00:53 35° SSW visible
06 Jul -3.0 18:10:35 10° SW 18:13:45 35° SSE 18:15:21 22° E visible
06 Jul -0.5 19:47:37 10° WSW 19:48:20 14° W 19:48:20 14° W visible
07 Jul -2.6 18:58:59 10° WSW 19:02:14 42° NW 19:03:08 33° N visible
08 Jul -3.7 18:10:36 10° SW 18:14:01 81° NW 18:17:23 10° NE visible
09 Jul -0.6 19:00:18 10° W 19:02:07 14° NW 19:03:55 10° NNW visible
10 Jul -1.2 18:11:09 10° WSW 18:13:59 25° NW 18:16:47 10° N visible
